Location: Unspecified
(41.1850°N, 73.2650°W)
Time: 21:51:57
(UTC+00:00)

Cosmos 2322 Rocket - Pass Details

Date: 14 December 2025
Orbit: 831 x 851 km, 71.0° (Epoch: 12 January)

Event Time Altitude Azimuth Distance (km) Brightness Sun altitude
Rises 23:24:14 0° 178° (S) 3,388 5.5 -21.6°
Reaches altitude 10° 23:26:49 10° 170° (S) 2,460 4.6 -22.1°
Enters shadow 23:30:40 33° 133° (SE) 1,404 3.0 -22.8°
